Location: Bucharest
(44.4268°N, 26.1025°E)
Time: 01:32:37
(UTC+03:00)

CUBESAT XI-V - Pass Details

Date: 05 July 2022
Orbit: 667 x 690 km, 98.1° (Epoch: 07 August)

Event Time Altitude Azimuth Distance (km) Brightness Sun altitude
Exits shadow 03:26:34 31° 208° (SSW) 1,174 ? -16.8°
Maximum altitude 03:28:20 47° 261° (W) 894 ? -16.7°
Drops below altitude 10° 03:32:46 10° 335° (NNW) 2,106 ? -16.3°
Sets 03:35:05 0° 342° (NNW) 3,023 ? -16.0°
